• Join FlightAware (Why Join?)
  • Login
  • US Flag GB Flag 
08:35 EST


 

Airport Tracker/Info


-or-


 

Live Flight TrackerFlight Track Log ✈ DAL268 ✈ 14-Jul-2013 ✈ KSFO - KJFK

Flight Track Log - Related Links

Times and Time Zones

All times are in EDT time to prevent confusion due to time zone crossing. See the DAL268 flight status page for this flight to view local times or setup timezone preferences in your user account.

Time Position Orientation Groundspeed Altitude Reporting Facility
EDT Latitude Longitude Course Direction KTS MPH feet Rate Location/Type
14:37 37.6321 -122.3640 27° Northeast 165 190 600  Level FlightAware ADS-B
14:37 37.6396 -122.3570 36° Northeast 171 197 1,100 2,400 Climbing FlightAware ADS-B
14:37 37.6413 -122.3540 54° Northeast 172 198 1,200 1,800 Climbing FlightAware ADS-B
14:37 37.6467 -122.3470 46° Northeast 182 209 1,500 1,200 Climbing FlightAware ADS-B
14:37 37.6557 -122.3360 44° Northeast 207 238 1,700 1,140 Climbing FlightAware ADS-B
14:37 37.6647 -122.3250 44° Northeast 224 258 2,000 1,680 Climbing FlightAware ADS-B
14:38 37.6763 -122.3100 46° Northeast 238 274 2,500 1,740 Climbing FlightAware ADS-B
14:38 37.6885 -122.2940 46° Northeast 258 297 2,900 2,100 Climbing FlightAware ADS-B
14:38 37.7027 -122.2750 47° Northeast 268 308 3,600 2,700 Climbing FlightAware ADS-B
14:39 37.7181 -122.2560 44° Northeast 272 313 4,400 2,760 Climbing FlightAware ADS-B
14:39 37.7377 -122.2320 44° Northeast 277 319 5,400 2,820 Climbing FlightAware ADS-B
14:39 37.7567 -122.2100 42° Northeast 277 319 6,400 3,060 Climbing FlightAware ADS-B
14:39 37.7717 -122.1930 42° Northeast 283 326 7,200 2,760 Climbing FlightAware ADS-B
14:40 37.7876 -122.1780 37° Northeast 286 329 7,800 2,580 Climbing FlightAware ADS-B
14:40 37.8054 -122.1610 37° Northeast 290 334 8,600 2,520 Climbing FlightAware ADS-B
14:40 37.8226 -122.1440 38° Northeast 298 343 9,200 2,100 Climbing FlightAware ADS-B
14:41 37.8396 -122.1280 37° Northeast 304 350 9,700 2,040 Climbing FlightAware ADS-B
14:41 37.8758 -122.0940 37° Northeast 320 368 10,800 1,500 Climbing FlightAware ADS-B
14:42 37.9146 -122.0570 37° Northeast 352 405 11,300 1,020 Climbing FlightAware ADS-B
14:42 37.9564 -122.0180 36° Northeast 379 436 11,900 1,560 Climbing FlightAware ADS-B
14:43 38.0003 -121.9760 37° Northeast 390 449 12,900 1,860 Climbing FlightAware ADS-B
14:43 38.0510 -121.9280 37° Northeast 402 463 14,000 1,920 Climbing FlightAware
14:44 38.1220 -121.8600 37° Northeast 413 475 15,600 1,980 Climbing FlightAware
14:45 38.1900 -121.7950 37° Northeast 423 487 17,000 1,860 Climbing FlightAware
14:45 38.2530 -121.7350 37° Northeast 430 495 18,300 1,860 Climbing FlightAware
14:46 38.3180 -121.6730 37° Northeast 441 507 19,500 1,680 Climbing FlightAware
14:46 38.3623 -121.6300 37° Northeast 448 516 20,200 1,560 Climbing FlightAware ADS-B
14:47 38.4410 -121.5490 39° Northeast 456 525 21,500 1,560 Climbing FlightAware
14:48 38.4960 -121.4630 51° Northeast 462 532 22,600 1,440 Climbing FlightAware
14:49 38.5470 -121.3750 53° Northeast 470 541 23,500 1,380 Climbing FlightAware
14:49 38.5980 -121.2870 53° Northeast 477 549 24,400 1,320 Climbing FlightAware
14:50 38.6560 -121.1870 53° Northeast 484 557 25,400 1,200 Climbing FlightAware
14:51 38.7090 -121.0950 54° Northeast 493 567 26,100 1,080 Climbing FlightAware
14:51 38.7710 -120.9870 54° Northeast 500 575 27,000 1,140 Climbing FlightAware
14:52 38.8240 -120.8960 53° Northeast 507 583 27,700 1,020 Climbing FlightAware
14:53 38.8840 -120.7920 53° Northeast 516 594 28,400 1,200 Climbing FlightAware
14:53 38.9430 -120.6900 53° Northeast 511 588 29,400 1,500 Climbing FlightAware
14:54 39.0020 -120.5880 53° Northeast 509 586 30,500 1,200 Climbing FlightAware
14:55 39.0640 -120.4800 54° Northeast 514 592 31,200 900 Climbing FlightAware
14:56 39.1210 -120.3800 54° Northeast 518 596 31,800 960 Climbing FlightAware
14:56 39.1790 -120.2800 53° Northeast 521 600 32,500 1,080 Climbing FlightAware
14:57 39.2460 -120.1620 54° Northeast 521 600 33,400 1,080 Climbing FlightAware
14:58 39.3010 -120.0650 54° Northeast 521 600 34,100 960 Climbing FlightAware
14:58 39.3500 -119.9780 54° Northeast 520 598 34,600 660 Climbing FlightAware
14:59 39.4070 -119.8560 59° Northeast 517 595 35,000 300 Climbing FlightAware
14:59 39.4340 -119.7920 61° Northeast 515 593 35,000  Level FlightAware
15:01 39.5200 -119.5930 61° Northeast 513 590 35,000  Level FlightAware
15:01 39.5640 -119.4850 62° Northeast 514 592 35,000  Level FlightAware
15:02 39.6150 -119.3580 62° Northeast 517 595 35,000  Level FlightAware
15:03 39.6590 -119.2500 62° Northeast 516 594 35,000  Level FlightAware
15:03 39.7050 -119.1390 62° Northeast 516 594 35,000  Level FlightAware
15:04 39.7540 -119.0190 62° Northeast 515 593 35,000  Level FlightAware
15:05 39.7980 -118.9090 62° Northeast 517 595 35,000  Level FlightAware
15:05 39.8390 -118.8050 63° Northeast 519 597 35,000  Level FlightAware
15:06 39.8880 -118.6840 62° Northeast 519 597 35,000  Level FlightAware
15:07 39.9270 -118.5850 63° Northeast 517 595 35,000  Level FlightAware
15:08 39.9760 -118.4620 63° Northeast 518 596 35,000  Level FlightAware
15:08 40.0180 -118.3560 63° Northeast 517 595 35,000  Level FlightAware
15:09 40.0590 -118.2510 63° Northeast 518 596 35,000  Level FlightAware
15:10 40.1100 -118.1210 63° Northeast 521 600 35,000  Level FlightAware
15:10 40.1520 -118.0130 63° Northeast 521 600 35,000  Level FlightAware
15:11 40.2000 -117.8890 63° Northeast 521 600 35,000  Level FlightAware
15:12 40.2410 -117.7840 63° Northeast 521 600 35,000  Level FlightAware
15:12 40.2740 -117.6980 63° Northeast 521 600 35,000  Level FlightAware
15:13 40.3170 -117.5880 63° Northeast 521 600 35,000  Level FlightAware
15:14 40.3510 -117.5020 63° Northeast 521 600 35,000  Level FlightAware
15:14 40.3850 -117.4130 63° Northeast 521 600 35,000  Level FlightAware
15:15 40.4350 -117.2830 63° Northeast 521 600 35,000  Level FlightAware
15:16 40.5030 -117.1080 63° Northeast 521 600 35,000  Level FlightAware
15:17 40.5380 -117.0190 63° Northeast 521 600 35,000  Level FlightAware
15:18 40.5710 -116.9330 63° Northeast 521 600 35,000  Level FlightAware
15:18 40.6160 -116.8170 63° Northeast 521 600 35,000  Level FlightAware
15:19 40.6500 -116.7280 63° Northeast 521 600 35,000  Level FlightAware
15:20 40.6860 -116.6350 63° Northeast 521 600 35,000  Level FlightAware
15:20 40.7200 -116.5480 63° Northeast 521 600 35,000  Level FlightAware
15:21 40.7977 -116.0740 78° East 519 597 35,000  Level FlightAware ADS-B
15:22 40.8311 -115.9480 71° East 519 597 35,000  Level FlightAware ADS-B
15:23 40.8580 -115.8450 71° East 520 598 35,000  Level FlightAware ADS-B
15:26 40.9986 -115.3040 71° East 516 594 35,000  Level FlightAware ADS-B
15:26 41.0219 -115.2130 71° East 516 594 35,000  Level FlightAware ADS-B
15:27 41.0447 -115.1230 71° East 516 594 35,000  Level FlightAware ADS-B
15:27 41.0755 -115.0030 71° East 517 595 35,000  Level FlightAware ADS-B
15:28 41.1007 -114.9030 71° East 515 593 35,000  Level FlightAware ADS-B
15:28 41.1240 -114.8100 72° East 513 590 35,000  Level FlightAware ADS-B
15:29 41.1565 -114.6810 71° East 513 590 35,000  Level FlightAware ADS-B
15:30 41.1799 -114.5870 72° East 514 592 35,000  Level FlightAware ADS-B
15:30 41.2024 -114.4960 72° East 514 592 35,000  Level FlightAware ADS-B
15:31 41.2248 -114.4060 72° East 511 588 35,000  Level FlightAware ADS-B
15:31 41.2470 -114.3160 72° East 515 593 35,000  Level FlightAware ADS-B
15:32 41.2697 -114.2240 72° East 518 596 35,000  Level FlightAware ADS-B
15:32 41.3034 -114.0860 72° East 516 594 35,000  Level FlightAware ADS-B
15:33 41.3255 -113.9950 72° East 510 587 35,000  Level FlightAware ADS-B
15:33 41.3468 -113.9070 72° East 509 586 35,000  Level FlightAware ADS-B
15:34 41.3589 -113.8440 76° East 506 582 35,000  Level FlightAware ADS-B
15:34 41.3660 -113.7880 80° East 505 581 35,000  Level FlightAware ADS-B
15:35 41.3729 -113.6930 84° East 506 582 35,000  Level FlightAware ADS-B
15:35 41.3793 -113.5990 85° East 507 583 35,000  Level FlightAware ADS-B
15:36 41.3855 -113.5030 85° East 508 585 35,000  Level FlightAware ADS-B
15:36 41.3916 -113.4100 85° East 507 583 35,000  Level FlightAware ADS-B
15:37 41.3990 -113.2940 85° East 507 583 35,000  Level FlightAware ADS-B
15:37 41.4050 -113.1990 85° East 506 582 35,000  Level FlightAware ADS-B
15:38 41.4112 -113.0980 85° East 507 583 35,000  Level FlightAware ADS-B
15:38 41.4170 -113.0030 85° East 506 582 35,000  Level FlightAware ADS-B
15:39 41.4244 -112.8820 85° East 505 581 35,000  Level FlightAware ADS-B
15:39 41.4300 -112.7850 86° East 502 578 35,000  Level FlightAware
15:40 41.4325 -112.7450 85° East 503 579 35,000  Level FlightAware ADS-B
15:40 41.4387 -112.6390 86° East 503 579 35,000  Level FlightAware ADS-B
15:41 41.4440 -112.5460 86° East 502 578 35,000  Level FlightAware ADS-B
15:41 41.4497 -112.4450 86° East 505 581 35,000  Level FlightAware ADS-B
15:42 41.4562 -112.3280 86° East 507 583 35,000  Level FlightAware ADS-B
15:42 41.4613 -112.2340 86° East 507 583 35,000  Level FlightAware ADS-B
15:43 41.4666 -112.1360 86° East 507 583 35,000  Level FlightAware ADS-B
15:44 41.4717 -112.0390 86° East 506 582 35,000  Level FlightAware ADS-B
15:44 41.4768 -111.9400 86° East 507 583 35,000  Level FlightAware ADS-B
15:45 41.4830 -111.8180 86° East 508 585 35,000  Level FlightAware ADS-B
15:45 41.4879 -111.7200 86° East 507 583 35,000  Level FlightAware ADS-B
15:46 41.4925 -111.6270 86° East 507 583 35,000  Level FlightAware ADS-B
15:46 41.4974 -111.5260 86° East 507 583 35,000  Level FlightAware ADS-B
15:47 41.5020 -111.4280 86° East 508 585 35,000  Level FlightAware ADS-B
15:47 41.5065 -111.3340 86° East 512 589 35,000  Level FlightAware ADS-B
15:48 41.5108 -111.2390 87° East 511 588 35,000  Level FlightAware ADS-B
15:48 41.5150 -111.1450 87° East 510 587 35,000  Level FlightAware ADS-B
15:49 41.5193 -111.0490 87° East 512 589 35,000  Level FlightAware ADS-B
15:49 41.5234 -110.9540 87° East 508 585 35,000  Level FlightAware ADS-B
15:50 41.5279 -110.8470 87° East 507 583 35,000  Level FlightAware ADS-B
15:51 41.5330 -110.7230 87° East 508 585 35,000  Level FlightAware
15:51 41.5380 -110.6030 87° East 508 585 35,000  Level FlightAware
15:52 41.5430 -110.4630 87° East 508 585 35,000  Level FlightAware
15:53 41.5480 -110.3340 87° East 508 585 35,000  Level FlightAware
15:53 41.5530 -110.1950 87° East 508 585 35,000  Level FlightAware
15:54 41.5580 -110.0730 87° East 511 588 35,000  Level FlightAware
15:55 41.5620 -109.9430 88° East 510 587 35,000  Level FlightAware
15:55 41.5660 -109.8260 87° East 510 587 35,000  Level FlightAware
15:56 41.5700 -109.7240 87° East 508 585 35,000  Level FlightAware
15:56 41.5730 -109.6070 88° East 506 582 35,000  Level FlightAware
15:57 41.5770 -109.4820 88° East 504 580 35,000  Level FlightAware
15:58 41.5810 -109.3390 88° East 504 580 35,000  Level FlightAware
15:59 41.5850 -109.2170 87° East 504 580 35,000  Level FlightAware
15:59 41.5880 -109.0890 88° East 506 582 35,000  Level FlightAware
16:00 41.5960 -108.9470 86° East 505 581 35,000  Level FlightAware
16:01 41.6050 -108.8250 84° East 506 582 35,000  Level FlightAware
16:01 41.6160 -108.6860 84° East 506 582 35,000  Level FlightAware
16:02 41.6260 -108.5490 84° East 508 585 35,000  Level FlightAware
16:03 41.6340 -108.4400 84° East 509 586 35,000  Level FlightAware
16:03 41.6450 -108.3010 84° East 505 581 35,000  Level FlightAware
16:04 41.6530 -108.1890 85° East 502 578 35,000  Level FlightAware
16:05 41.6620 -108.0630 84° East 501 577 35,000  Level FlightAware
16:06 41.6710 -107.9270 85° East 503 579 35,000  Level FlightAware
16:06 41.6780 -107.8270 85° East 506 582 35,000  Level FlightAware
16:07 41.6880 -107.6820 85° East 506 582 35,000  Level FlightAware
16:07 41.6960 -107.5590 85° East 502 578 35,000  Level FlightAware
16:08 41.7040 -107.4360 85° East 496 571 35,000  Level FlightAware
16:09 41.7130 -107.3030 85° East 496 571 35,000  Level FlightAware
16:10 41.7230 -107.1460 85° East 496 571 35,000  Level FlightAware
16:10 41.7290 -107.0520 85° East 496 571 35,000  Level FlightAware
16:11 41.7360 -106.9540 84° East 496 571 35,000  Level FlightAware
16:12 41.7430 -106.8340 85° East 496 571 35,000  Level FlightAware
16:12 41.7530 -106.6550 86° East 493 567 35,000  Level FlightAware
16:13 41.7590 -106.5540 85° East 493 567 35,000 780 Level FlightAware
16:14 41.7680 -106.3860 86° East 490 564 36,200 1,260 Climbing FlightAware
16:15 41.7750 -106.2570 86° East 487 560 37,000 540 Climbing FlightAware
16:15 41.7820 -106.1370 85° East 480 552 37,000  Level FlightAware
16:16 41.7880 -106.0310 86° East 476 548 37,000  Level FlightAware
16:17 41.7940 -105.9020 86° East 477 549 37,000  Level FlightAware
16:17 41.8000 -105.7830 86° East 483 556 37,000  Level FlightAware
16:18 41.8070 -105.6540 86° East 485 558 37,000  Level FlightAware
16:19 41.8120 -105.5550 86° East 486 559 37,000  Level FlightAware
16:19 41.8180 -105.4200 87° East 482 555 37,000  Level FlightAware
16:20 41.8250 -105.2830 86° East 483 556 37,000  Level FlightAware
16:20 41.8281 -105.2110 87° East 484 557 37,000  Level FlightAware ADS-B
16:21 41.8322 -105.1220 86° East 483 556 37,000  Level FlightAware ADS-B
16:21 41.8362 -105.0320 87° East 481 554 37,000  Level FlightAware ADS-B
16:22 41.8401 -104.9420 87° East 480 552 37,000  Level FlightAware ADS-B
16:22 41.8439 -104.8520 87° East 479 551 37,000  Level FlightAware ADS-B
16:23 41.8478 -104.7620 87° East 478 550 37,000  Level FlightAware ADS-B
16:23 41.8515 -104.6720 87° East 479 551 37,000  Level FlightAware ADS-B
16:24 41.8555 -104.5730 87° East 483 556 37,000  Level FlightAware ADS-B
16:25 41.8591 -104.4830 87° East 485 558 37,000  Level FlightAware ADS-B
16:25 41.8626 -104.3930 87° East 483 556 37,000  Level FlightAware ADS-B
16:26 41.8661 -104.3020 87° East 480 552 37,000  Level FlightAware ADS-B
16:26 41.8695 -104.2110 87° East 477 549 37,000  Level FlightAware ADS-B
16:27 41.8729 -104.1170 87° East 477 549 37,000  Level FlightAware ADS-B
16:27 41.8762 -104.0280 87° East 479 551 37,000  Level FlightAware ADS-B
16:28 41.8793 -103.9370 87° East 480 552 37,000  Level FlightAware ADS-B
16:28 41.8824 -103.8470 87° East 479 551 37,000  Level FlightAware ADS-B
16:29 41.8854 -103.7580 87° East 474 545 37,000  Level FlightAware ADS-B
16:29 41.8883 -103.6680 87° East 471 542 37,000  Level FlightAware ADS-B
16:30 41.8912 -103.5770 88° East 470 541 37,000  Level FlightAware ADS-B
16:30 41.8937 -103.5160 87° East 473 544 37,000  Level FlightAware ADS-B
16:30 41.9012 -103.4340 83° East 477 549 37,000  Level FlightAware ADS-B
16:31 41.9129 -103.3470 80° East 476 548 37,000  Level FlightAware ADS-B
16:31 41.9254 -103.2590 79° East 476 548 37,000  Level FlightAware ADS-B
16:32 41.9403 -103.1540 79° East 479 551 37,000  Level FlightAware ADS-B
16:33 41.9542 -103.0550 79° East 479 551 37,000  Level FlightAware ADS-B
16:33 41.9710 -102.9330 79° East 482 555 37,000  Level FlightAware ADS-B
16:34 41.9847 -102.8320 80° East 480 552 37,000  Level FlightAware ADS-B
16:35 41.9987 -102.7290 80° East 477 549 37,000  Level FlightAware ADS-B
16:35 42.0119 -102.6310 80° East 474 545 37,000  Level FlightAware ADS-B
16:36 42.0277 -102.5120 80° East 474 545 37,000  Level FlightAware ADS-B
16:36 42.0411 -102.4120 80° East 475 547 37,000  Level FlightAware ADS-B
16:37 42.0532 -102.3200 80° East 474 545 37,000  Level FlightAware ADS-B
16:38 42.0737 -102.1630 80° East 470 541 37,000  Level FlightAware ADS-B
16:38 42.0859 -102.0700 80° East 470 541 37,000  Level FlightAware ADS-B
16:39 42.0970 -101.9830 80° East 471 542 37,000  Level FlightAware ADS-B
16:39 42.1089 -101.8910 80° East 472 543 37,000  Level FlightAware ADS-B
16:40 42.1213 -101.7930 80° East 470 541 37,000  Level FlightAware ADS-B
16:41 42.1367 -101.6639 80° East 465 535 37,000  Level Minneapolis Center
16:42 42.1586 -101.4917 80° East 466 536 37,000  Level Minneapolis Center
16:43 42.1789 -101.3181 81° East 468 539 37,000  Level Minneapolis Center
16:44 42.2053 -101.1119 80° East 465 535 37,000  Level Minneapolis Center
16:45 42.2253 -100.9389 81° East 466 536 37,000  Level Minneapolis Center
16:51 42.3473 -99.8755 81° East 460 529 37,000  Level FlightAware ADS-B
16:52 42.3568 -99.7878 82° East 461 531 37,000  Level FlightAware ADS-B
16:52 42.3661 -99.7017 82° East 461 531 37,000  Level FlightAware ADS-B
16:53 42.3754 -99.6145 82° East 460 529 37,000  Level FlightAware ADS-B
16:53 42.3853 -99.5217 82° East 461 531 37,000  Level FlightAware ADS-B
16:54 42.3953 -99.4268 82° East 460 529 37,000  Level FlightAware ADS-B
16:54 42.4042 -99.3411 82° East 459 528 37,000  Level FlightAware ADS-B
16:55 42.4139 -99.2482 82° East 458 527 37,000  Level FlightAware ADS-B
16:56 42.4311 -99.0806 82° East 458 527 37,000  Level FlightAware ADS-B
16:56 42.4397 -98.9954 82° East 457 526 37,000  Level FlightAware ADS-B
16:57 42.4483 -98.9104 82° East 456 525 37,000  Level FlightAware ADS-B
16:57 42.4576 -98.8170 82° East 454 522 37,000  Level FlightAware ADS-B
16:58 42.4704 -98.6765 83° East 454 522 37,000  Level FlightAware ADS-B
16:59 42.4772 -98.5571 86° East 453 521 37,000  Level FlightAware ADS-B
16:59 42.4815 -98.4710 86° East 453 521 37,000  Level FlightAware ADS-B
17:00 42.4856 -98.3850 86° East 452 520 37,000  Level FlightAware ADS-B
17:00 42.4897 -98.2996 86° East 450 518 37,000  Level FlightAware ADS-B
17:01 42.4939 -98.2115 86° East 451 519 37,000  Level FlightAware ADS-B
17:01 42.4978 -98.1270 86° East 452 520 37,000  Level FlightAware ADS-B
17:02 42.5018 -98.0390 86° East 450 518 37,000  Level FlightAware ADS-B
17:02 42.5057 -97.9543 86° East 447 514 37,000  Level FlightAware ADS-B
17:03 42.5094 -97.8706 87° East 446 513 37,000  Level FlightAware ADS-B
17:03 42.5131 -97.7869 87° East 447 514 37,000  Level FlightAware ADS-B
17:04 42.5176 -97.6810 87° East 451 519 37,000  Level FlightAware ADS-B
17:05 42.5212 -97.5956 87° East 458 527 37,000  Level FlightAware ADS-B
17:05 42.5248 -97.5090 87° East 456 525 37,000  Level FlightAware ADS-B
17:06 42.5283 -97.4233 87° East 454 522 37,000  Level FlightAware ADS-B
17:06 42.5317 -97.3383 87° East 454 522 37,000  Level FlightAware ADS-B
17:07 42.5350 -97.2531 87° East 455 524 37,000  Level FlightAware ADS-B
17:07 42.5384 -97.1640 87° East 455 524 37,000  Level FlightAware ADS-B
17:08 42.5418 -97.0749 87° East 452 520 37,000  Level FlightAware ADS-B
17:08 42.5450 -96.9874 87° East 443 510 37,000  Level FlightAware ADS-B
17:09 42.5479 -96.9040 87° East 441 507 37,000  Level FlightAware ADS-B
17:09 42.5517 -96.7984 87° East 441 507 37,000  Level FlightAware ADS-B
17:10 42.5547 -96.7100 87° East 440 506 37,000  Level FlightAware ADS-B
17:10 42.5575 -96.6271 87° East 438 504 37,000  Level FlightAware ADS-B
17:11 42.5604 -96.5394 87° East 438 504 37,000  Level FlightAware ADS-B
17:11 42.5630 -96.4566 88° East 439 505 37,000  Level FlightAware ADS-B
17:12 42.5656 -96.3739 88° East 440 506 37,000  Level FlightAware ADS-B
17:12 42.5682 -96.2883 88° East 440 506 37,000  Level FlightAware ADS-B
17:13 42.5708 -96.2050 88° East 440 506 37,000  Level FlightAware ADS-B
17:13 42.5732 -96.1214 88° East 440 506 37,000  Level FlightAware ADS-B
17:14 42.5755 -96.0385 88° East 440 506 37,000  Level FlightAware ADS-B
17:14 42.5780 -95.9493 88° East 438 504 37,000  Level FlightAware ADS-B
17:15 42.5802 -95.8666 88° East 435 501 37,000  Level FlightAware ADS-B
17:15 42.5824 -95.7836 88° East 433 498 37,000  Level FlightAware ADS-B
17:16 42.5845 -95.7013 88° East 433 498 37,000  Level FlightAware ADS-B
17:17 42.5865 -95.6191 88° East 434 499 37,000  Level FlightAware ADS-B
17:17 42.5885 -95.5366 88° East 436 502 37,000  Level FlightAware ADS-B
17:18 42.5905 -95.4511 88° East 437 503 37,000  Level FlightAware ADS-B
17:18 42.5924 -95.3677 88° East 436 502 37,000  Level FlightAware ADS-B
17:19 42.5941 -95.2858 88° East 437 503 37,000  Level FlightAware ADS-B
17:19 42.5959 -95.2003 88° East 437 503 37,000  Level FlightAware ADS-B
17:20 42.5976 -95.1183 88° East 437 503 37,000  Level FlightAware ADS-B
17:20 42.5993 -95.0353 88° East 436 502 37,000  Level FlightAware ADS-B
17:21 42.6008 -94.9532 89° East 434 499 37,000  Level FlightAware ADS-B
17:21 42.6025 -94.8682 88° East 434 499 37,000  Level FlightAware ADS-B
17:22 42.6039 -94.7864 89° East 432 497 37,000  Level FlightAware ADS-B
17:22 42.6053 -94.7041 89° East 433 498 37,000  Level FlightAware ADS-B
17:23 42.6066 -94.6213 89° East 436 502 37,000  Level FlightAware ADS-B
17:23 42.6078 -94.5375 89° East 439 505 37,000  Level FlightAware ADS-B
17:24 42.6089 -94.4543 89° East 438 504 37,000  Level FlightAware ADS-B
17:24 42.6101 -94.3718 89° East 438 504 37,000  Level FlightAware ADS-B
17:25 42.6112 -94.2880 89° East 438 504 37,000  Level FlightAware ADS-B
17:25 42.6121 -94.1988 89° East 439 505 37,000  Level FlightAware ADS-B
17:26 42.6128 -94.1146 89° East 442 509 37,000  Level FlightAware ADS-B
17:26 42.6134 -94.0319 89° East 442 509 37,000  Level FlightAware ADS-B
17:27 42.6140 -93.9483 89° East 443 510 37,000  Level FlightAware ADS-B
17:27 42.6145 -93.8642 90° East 443 510 37,000  Level FlightAware ADS-B
17:28 42.6150 -93.7783 90° East 445 512 37,000  Level FlightAware ADS-B
17:28 42.6155 -93.6847 90° East 446 513 37,000  Level FlightAware ADS-B
17:29 42.6160 -93.5350 90° East 447 514 37,000  Level FlightAware
17:30 42.6160 -93.4190 90° East 444 511 37,000  Level FlightAware
17:31 42.6170 -93.3060 89° East 445 512 37,000  Level FlightAware
17:31 42.6170 -93.2060 90° East 445 512 37,000  Level FlightAware
17:32 42.6170 -93.0840 90° East 447 514 37,000  Level FlightAware
17:33 42.6160 -92.9720 91° East 448 516 37,000  Level FlightAware
17:33 42.6160 -92.8480 90° East 448 516 37,000  Level FlightAware
17:34 42.6160 -92.7480 90° East 445 512 37,000  Level FlightAware
17:35 42.6150 -92.6240 91° East 445 512 37,000  Level FlightAware
17:35 42.6150 -92.5070 90° East 446 513 37,000  Level FlightAware
17:36 42.6140 -92.4060 91° East 445 512 37,000  Level FlightAware
17:37 42.6130 -92.2430 90° East 442 509 37,000  Level FlightAware
17:38 42.6120 -92.1340 91° East 441 507 37,000  Level FlightAware
17:38 42.6110 -92.0110 91° East 440 506 37,000  Level FlightAware
17:39 42.6100 -91.9020 91° East 442 509 37,000  Level FlightAware
17:40 42.6080 -91.7920 91° East 441 507 37,000  Level FlightAware
17:40 42.6070 -91.6700 91° East 440 506 37,000  Level FlightAware
17:41 42.6050 -91.5600 91° East 442 509 37,000  Level FlightAware
17:42 42.6040 -91.4340 91° East 445 512 37,000  Level FlightAware
17:42 42.6020 -91.3220 91° East 442 509 37,000  Level FlightAware
17:43 42.6000 -91.2070 91° East 443 510 37,000  Level FlightAware
17:44 42.5980 -91.0860 91° East 445 512 37,000  Level FlightAware
17:45 42.5960 -90.9680 91° East 447 514 37,000  Level FlightAware
17:45 42.5930 -90.8570 92° East 447 514 37,000  Level FlightAware
17:46 42.5910 -90.7310 91° East 447 514 37,000  Level FlightAware
17:47 42.5880 -90.6240 92° East 446 513 37,000  Level FlightAware
17:47 42.5860 -90.4980 91° East 445 512 37,000  Level FlightAware
17:48 42.5830 -90.3870 92° East 445 512 37,000  Level FlightAware
17:49 42.5800 -90.2710 92° East 445 512 37,000  Level FlightAware
17:49 42.5770 -90.1520 92° East 446 513 37,000  Level FlightAware
17:50 42.5740 -90.0360 92° East 445 512 37,000  Level FlightAware
17:51 42.5700 -89.9150 93° East 442 509 37,000  Level FlightAware
17:52 42.5670 -89.8030 92° East 443 510 37,000  Level FlightAware
17:52 42.5640 -89.6830 92° East 445 512 37,000  Level FlightAware
17:53 42.5610 -89.5930 93° East 445 512 37,000  Level FlightAware
17:53 42.5570 -89.4820 93° East 444 511 37,000  Level FlightAware
17:54 42.5530 -89.3540 92° East 444 511 37,000  Level FlightAware
17:55 42.5500 -89.2530 92° East 443 510 37,000  Level FlightAware
17:56 42.5460 -89.1360 93° East 444 511 37,000  Level FlightAware
17:56 42.5420 -89.0270 93° East 444 511 37,000  Level FlightAware
17:57 42.5370 -88.9040 93° East 445 512 37,000  Level FlightAware
17:58 42.5330 -88.8010 93° East 445 512 37,000  Level FlightAware
17:58 42.5280 -88.6700 93° East 444 511 37,000  Level FlightAware
17:59 42.5240 -88.5600 93° East 445 512 37,000  Level FlightAware
18:00 42.5190 -88.4480 93° East 446 513 37,000  Level FlightAware
18:00 42.5150 -88.3450 93° East 446 513 37,000  Level FlightAware
18:01 42.5100 -88.2260 93° East 446 513 37,000  Level FlightAware
18:02 42.5050 -88.1200 94° East 445 512 37,000  Level FlightAware
18:02 42.5010 -88.0070 93° East 446 513 37,000  Level FlightAware
18:03 42.5000 -87.8920 91° East 448 516 37,000  Level FlightAware
18:04 42.5000 -87.7810 90° East 448 516 37,000  Level FlightAware
18:04 42.5000 -87.6580 90° East 447 514 37,000  Level FlightAware
18:05 42.4990 -87.5440 91° East 446 513 37,000  Level FlightAware
18:06 42.4990 -87.4340 90° East 445 512 37,000  Level FlightAware
18:06 42.4980 -87.3160 91° East 445 512 37,000  Level FlightAware
18:07 42.4980 -87.2320 90° East 445 512 37,000  Level FlightAware
18:08 42.4970 -87.1030 91° East 447 514 37,000  Level FlightAware
18:08 42.4960 -86.9810 91° East 447 514 37,000  Level FlightAware
18:09 42.4950 -86.8680 91° East 448 516 37,000  Level FlightAware
18:10 42.4930 -86.7400 91° East 448 516 37,000  Level FlightAware
18:10 42.4920 -86.6440 91° East 448 516 37,000  Level FlightAware
18:11 42.4910 -86.5000 90° East 449 517 37,000  Level FlightAware
18:12 42.4890 -86.4110 92° East 449 517 37,000  Level FlightAware
18:13 42.4880 -86.2920 91° East 448 516 37,000  Level FlightAware
18:13 42.4860 -86.1690 91° East 448 516 37,000  Level FlightAware
18:14 42.4840 -86.0560 91° East 449 517 37,000  Level FlightAware
18:15 42.4820 -85.9320 91° East 448 516 37,000  Level FlightAware
18:17 42.4760 -85.5990 91° East 447 514 37,000  Level FlightAware
18:17 42.4740 -85.5030 92° East 449 517 37,000  Level FlightAware
18:18 42.4710 -85.3730 92° East 449 517 37,000  Level FlightAware
18:19 42.4680 -85.2680 92° East 449 517 37,000  Level FlightAware
18:19 42.4650 -85.1420 92° East 450 518 37,000  Level FlightAware
18:20 42.4630 -85.0440 92° East 452 520 37,000  Level FlightAware
18:21 42.4600 -84.9220 92° East 454 522 37,000  Level FlightAware
18:21 42.4570 -84.8090 92° East 453 521 37,000  Level FlightAware
18:22 42.4530 -84.6940 93° East 453 521 37,000  Level FlightAware
18:23 42.4500 -84.5900 92° East 454 522 37,000  Level FlightAware
18:23 42.4340 -84.4540 99° East 454 522 37,000  Level FlightAware
18:24 42.4050 -84.3470 110° East 455 524 37,000  Level FlightAware
18:25 42.3740 -84.2310 110° East 456 525 37,000  Level FlightAware
18:26 42.3460 -84.1250 110° East 459 528 37,000  Level FlightAware
18:26 42.3160 -84.0090 109° East 459 528 37,000  Level FlightAware
18:27 42.2840 -83.8880 110° East 457 526 37,000  Level FlightAware
18:28 42.2590 -83.7910 109° East 457 526 37,000  Level FlightAware
18:28 42.2360 -83.6660 104° East 458 527 37,000  Level FlightAware
18:29 42.2300 -83.5340 93° East 461 531 37,000  Level FlightAware
18:30 42.2250 -83.4210 93° East 462 532 37,000  Level FlightAware
18:30 42.2210 -83.3060 93° East 462 532 37,000  Level FlightAware
18:31 42.2160 -83.1790 93° East 460 529 37,000  Level FlightAware
18:32 42.2110 -83.0710 94° East 460 529 37,000  Level FlightAware
18:33 42.2060 -82.9430 93° East 463 533 37,000  Level FlightAware
18:33 42.2010 -82.8240 93° East 464 534 37,000  Level FlightAware
18:34 42.1970 -82.7250 93° East 464 534 37,000  Level FlightAware
18:35 42.1910 -82.5950 94° East 463 533 37,000  Level FlightAware
18:36 42.1830 -82.4310 94° East 466 536 37,000  Level FlightAware
18:36 42.1770 -82.3090 94° East 466 536 37,000  Level FlightAware
18:37 42.1720 -82.2080 94° East 465 535 37,000  Level FlightAware
18:38 42.1650 -82.0700 94° East 463 533 37,000  Level FlightAware
18:38 42.1580 -81.9430 94° East 463 533 37,000  Level FlightAware
18:39 42.1520 -81.8290 94° East 463 533 37,000  Level FlightAware
18:40 42.1450 -81.7170 95° East 463 533 37,000  Level FlightAware
18:40 42.1380 -81.5890 94° East 463 533 37,000  Level FlightAware
18:41 42.1320 -81.4700 94° East 464 534 37,000  Level FlightAware
18:42 42.1240 -81.3430 95° East 464 534 37,000  Level FlightAware
18:42 42.1170 -81.2300 95° East 466 536 37,000  Level FlightAware
18:43 42.1100 -81.0990 94° East 468 539 37,000  Level FlightAware
18:44 42.1020 -80.9750 95° East 467 537 37,000  Level FlightAware
18:45 42.0950 -80.8620 95° East 466 536 37,000  Level FlightAware
18:45 42.0870 -80.7360 95° East 466 536 37,000  Level FlightAware
18:46 42.0800 -80.6360 95° East 466 536 37,000  Level FlightAware
18:47 42.0720 -80.5150 95° East 464 534 37,000  Level FlightAware
18:47 42.0640 -80.3850 95° East 463 533 37,000  Level FlightAware
18:48 42.0560 -80.2730 95° East 461 531 37,000  Level FlightAware
18:49 42.0480 -80.1470 95° East 461 531 37,000 -120 Level FlightAware
18:49 42.0400 -80.0340 95° East 460 529 36,900 -660 Descending FlightAware
18:50 42.0320 -79.9240 96° East 461 531 36,200 -720 Descending FlightAware
18:51 42.0230 -79.7990 95° East 464 534 36,000 -180 Descending FlightAware
18:52 42.0130 -79.6700 96° East 464 534 36,000  Level FlightAware
18:52 42.0070 -79.5760 95° East 464 534 36,000  Level FlightAware
18:53 41.9970 -79.4530 96° East 464 534 36,000  Level FlightAware
18:53 41.9890 -79.3380 95° East 463 533 36,000  Level FlightAware
18:54 41.9800 -79.2310 96° East 462 532 36,000  Level FlightAware
18:55 41.9720 -79.1240 96° East 461 531 36,000  Level FlightAware
18:55 41.9620 -79.0010 96° East 458 527 36,000  Level FlightAware
18:56 41.9520 -78.8750 96° East 458 527 36,000  Level FlightAware
18:57 41.9430 -78.7600 96° East 458 527 36,000  Level FlightAware
18:58 41.9330 -78.6410 96° East 460 529 36,000  Level FlightAware
18:58 41.9230 -78.5190 96° East 460 529 36,000  Level FlightAware
18:59 41.9140 -78.4090 96° East 459 528 36,000  Level FlightAware
19:00 41.9030 -78.2890 97° East 459 528 36,000  Level FlightAware
19:00 41.8930 -78.1690 96° East 461 531 36,000  Level FlightAware
19:01 41.8820 -78.0480 97° East 461 531 36,000  Level FlightAware
19:02 41.8720 -77.9250 96° East 461 531 36,000  Level FlightAware
19:02 41.8540 -77.8140 102° East 464 534 36,000  Level FlightAware
19:03 41.8290 -77.7130 108° East 465 535 36,000  Level FlightAware
19:04 41.7980 -77.5980 110° East 462 532 36,000  Level FlightAware
19:04 41.7690 -77.4870 109° East 461 531 36,000  Level FlightAware
19:05 41.7380 -77.3720 110° East 461 531 36,000  Level FlightAware
19:06 41.7090 -77.2640 110° East 464 534 36,000  Level FlightAware
19:07 41.6770 -77.1450 110° East 465 535 36,000  Level FlightAware
19:07 41.6420 -77.0160 110° East 465 535 36,000  Level FlightAware
19:08 41.6312 -76.9756 110° East 466 536 36,000  Level FlightAware ADS-B
19:08 41.6029 -76.8717 110° East 465 535 36,000  Level FlightAware ADS-B
19:09 41.5802 -76.7886 110° East 465 535 36,000  Level FlightAware ADS-B
19:09 41.5483 -76.6723 110° East 465 535 36,000  Level FlightAware ADS-B
19:10 41.5258 -76.5905 110° East 463 533 36,000  Level FlightAware ADS-B
19:11 41.5023 -76.5055 110° East 463 533 36,000  Level FlightAware ADS-B
19:11 41.4786 -76.4202 110° East 463 533 36,000  Level FlightAware ADS-B
19:12 41.4562 -76.3394 110° East 463 533 36,000  Level FlightAware ADS-B
19:12 41.4326 -76.2547 110° East 462 532 36,000  Level FlightAware ADS-B
19:13 41.4091 -76.1707 110° East 462 532 36,000  Level FlightAware ADS-B
19:13 41.3868 -76.0909 110° East 460 529 36,000 -240 Level FlightAware ADS-B
19:14 41.3644 -76.0117 111° Southeast 460 529 35,800 -1,200 Descending FlightAware ADS-B
19:14 41.3417 -75.9317 111° Southeast 460 529 34,800 -2,640 Descending FlightAware ADS-B
19:15 41.3191 -75.8518 111° Southeast 464 534 33,200 -3,180 Descending FlightAware ADS-B
19:15 41.2955 -75.7691 111° Southeast 467 537 31,600 -3,420 Descending FlightAware ADS-B
19:16 41.2711 -75.6859 111° Southeast 474 545 29,700 -3,720 Descending FlightAware ADS-B
19:16 41.2441 -75.6025 113° Southeast 481 554 27,800 -3,300 Descending FlightAware ADS-B
19:17 41.2171 -75.5216 114° Southeast 478 550 26,400 -2,760 Descending FlightAware ADS-B
19:17 41.1899 -75.4409 114° Southeast 471 542 25,000 -2,820 Descending FlightAware ADS-B
19:18 41.1623 -75.3588 114° Southeast 464 534 23,500 -1,980 Descending FlightAware ADS-B
19:18 41.1361 -75.2810 114° Southeast 460 529 23,000 -540 Descending FlightAware ADS-B
19:19 41.1095 -75.2024 114° Southeast 458 527 23,000  Level FlightAware ADS-B
19:19 41.0832 -75.1249 114° Southeast 460 529 23,000  Level FlightAware ADS-B
19:20 41.0567 -75.0469 114° Southeast 461 531 23,000  Level FlightAware ADS-B
19:20 41.0350 -74.9833 114° Southeast 461 531 23,000  Level FlightAware ADS-B
19:20 41.0288 -74.9651 114° Southeast 461 531 23,000  Level FlightAware ADS-B
19:21 41.0109 -74.9113 114° Southeast 459 528 23,000  Level FlightAware ADS-B
19:21 41.0073 -74.8987 111° Southeast 459 528 23,000  Level FlightAware ADS-B
19:21 41.0023 -74.8798 109° East 458 527 23,000  Level FlightAware ADS-B
19:21 40.9934 -74.8359 105° East 455 524 23,000  Level FlightAware ADS-B
19:22 40.9833 -74.7527 99° East 454 522 23,000  Level FlightAware ADS-B
19:22 40.9737 -74.6652 98° East 456 525 23,000  Level FlightAware ADS-B
19:22 40.9731 -74.6594 98° East 454 522 23,000  Level FlightAware ADS-B
19:23 40.9631 -74.5679 98° East 457 526 23,000 -420 Level FlightAware ADS-B
19:23 40.9532 -74.4770 98° East 455 524 22,600 -1,440 Descending FlightAware ADS-B
19:24 40.9419 -74.3755 98° East 446 513 21,300 -2,280 Descending FlightAware ADS-B
19:24 40.9337 -74.3073 99° East 440 506 20,200 -2,460 Descending FlightAware ADS-B
19:25 40.9222 -74.2613 108° East 438 504 19,500 -2,040 Descending FlightAware ADS-B
19:25 40.9031 -74.2182 120° Southeast 436 502 19,000 -960 Descending FlightAware ADS-B
19:25 40.8851 -74.1910 131° Southeast 437 503 19,000  Level FlightAware ADS-B
19:25 40.8611 -74.1647 140° Southeast 440 506 19,000 -540 Level FlightAware ADS-B
19:26 40.8080 -74.1208 148° Southeast 439 505 18,600 -1,380 Descending FlightAware ADS-B
19:26 40.7568 -74.0795 149° Southeast 428 493 17,600 -2,100 Descending FlightAware ADS-B
19:26 40.7534 -74.0768 149° Southeast 428 493 17,500 -2,640 Descending FlightAware ADS-B
19:27 40.6958 -74.0286 148° Southeast 420 483 16,000 -2,640 Descending FlightAware ADS-B
19:27 40.6926 -74.0258 146° Southeast 419 482 15,900 -2,520 Descending FlightAware ADS-B
19:28 40.6410 -73.9823 147° Southeast 412 474 14,600 -2,580 Descending FlightAware ADS-B
19:28 40.5866 -73.9359 147° Southeast 408 470 13,100 -2,700 Descending FlightAware ADS-B
19:29 40.5550 -73.8959 136° Southeast 405 466 12,000 -2,760 Descending FlightAware ADS-B
19:29 40.5424 -73.8745 128° Southeast 412 474 11,500 -2,520 Descending FlightAware ADS-B
19:29 40.5201 -73.8344 126° Southeast 394 453 10,700 -2,220 Descending FlightAware ADS-B
19:29 40.4951 -73.7891 126° Southeast 365 420 9,900 -1,620 Descending FlightAware ADS-B
19:30 40.4845 -73.7633 118° Southeast 345 397 9,700 -600 Descending FlightAware ADS-B
19:30 40.4799 -73.7334 101° East 316 364 9,600 -1,260 Descending FlightAware ADS-B
19:30 40.4895 -73.6827 76° East 299 344 8,800 -2,040 Descending FlightAware ADS-B
19:31 40.5002 -73.6449 70° East 296 341 7,900 -2,340 Descending FlightAware ADS-B
19:31 40.5150 -73.5930 69° East 289 333 6,700 -2,280 Descending FlightAware
19:32 40.5360 -73.5480 58° Northeast 273 314 5,500 -1,920 Descending FlightAware
19:32 40.5630 -73.5170 41° Northeast 269 310 4,800 -900 Descending FlightAware
19:33 40.5900 -73.4870 40° Northeast 261 300 4,700 -120 Descending FlightAware
19:33 40.6160 -73.4590 39° Northeast 265 305 4,700  Level FlightAware
19:34 40.6410 -73.4410 29° Northeast 254 292 4,700  Level FlightAware
19:34 40.6510 -73.4410 360° North 252 290 4,700  Level FlightAware
19:34 40.6810 -73.4480 350° North 236 272 4,700  Level FlightAware
19:35 40.7090 -73.4550 349° North 219 252 4,700  Level FlightAware
19:35 40.7230 -73.4610 342° North 212 244 4,700  Level FlightAware
19:35 40.7330 -73.4740 315° West 214 246 4,700 -360 Level FlightAware
19:36 40.7480 -73.4990 308° West 215 247 4,500 -780 Descending FlightAware
19:36 40.7670 -73.5310 308° West 212 244 4,000 -1,020 Descending FlightAware
19:37 40.7840 -73.5600 308° West 210 242 3,500 -1,080 Descending FlightAware
19:37 40.8000 -73.5860 309° West 196 226 3,000 -900 Descending FlightAware
19:38 40.8160 -73.6110 310° West 179 206 2,700 -360 Descending FlightAware
19:38 40.8250 -73.6300 302° West 160 184 2,700 -180 Level FlightAware
19:38 40.8200 -73.6480 250° West 160 184 2,600 -540 Descending FlightAware
19:39 40.8100 -73.6510 193° South 167 192 2,400 -1,140 Descending FlightAware
19:39 40.7910 -73.6480 173° South 175 201 1,900 -960 Descending FlightAware
19:39 40.7760 -73.6540 197° South 167 192 1,700 -300 Descending FlightAware
19:40 40.7590 -73.6650 206° Southwest 165 190 1,700  Level FlightAware
19:40 40.7490 -73.6740 214° Southwest 167 192 1,700 -180 Level FlightAware
19:40 40.7310 -73.6880 211° Southwest 157 181 1,600 -480 Descending FlightAware
19:41 40.7150 -73.7000 210° Southwest 131 151 1,300 -660 Descending FlightAware
19:41 40.7000 -73.7120 211° Southwest 122 140 1,000 -660 Descending FlightAware
19:42 40.6870 -73.7220 210° Southwest 119 137 700 -660 Descending FlightAware
19:42 40.6740 -73.7330 213° Southwest 118 136 400 -600 Descending FlightAware
19:42 40.6680 -73.7370 207° Southwest 117 135 300 -540 Descending FlightAware
19:43 40.6540 -73.7480 211° Southwest 117 135 -600 Descending FlightAware
19:43 40.6400 -73.7590 211° Southwest 116 133  Level FlightAware
19:44 40.6320 -73.7660 214° Southwest 42 48  Level FlightAware
19:44 40.6300 -73.7670 201° Southwest 32 37  Level FlightAware
19:44 40.6290 -73.7690 237° Southwest 21 24  Level FlightAware
19:44 40.6290 -73.7700 270° West 20 23  Level FlightAware
19:45 40.6310 -73.7730 311° West 34 39  Level FlightAware
19:46 40.6320 -73.7750 303° West 33 38  Level FlightAware
19:49 40.6340 -73.7800 294° West 19 22  Level FlightAware